Marshall, TX

9:09 PM CDT on April 24, 2018 (GMT -0500)
Harrison County

Weather History for KASL - August, 2013

Change the Weather History Date:

Monday, August 26, 2013

  Actual Average (KGGG) Record (KGGG)
Temperature  
Mean Temperature 82 °F -  
Max Temperature 93 °F 90 °F 105 °F (1938)
Min Temperature 70 °F 70 °F 59 °F (1966)
Cooling Degree Days 16    
Growing Degree Days 32 (Base 50)    
Moisture  
Dew Point 66 °F    
Average Humidity 62    
Maximum Humidity 89    
Minimum Humidity 35    
Precipitation  
Precipitation 0.00 in - - ()
Sea Level Pressure  
Sea Level Pressure 30.16 in    
Wind  
Wind Speed 3 mph (SE)    
Max Wind Speed 15 mph    
Max Gust Speed 21 mph    
Visibility 10 miles    
Events      
Averages and records for this station are not official NWS values.
T = Trace of Precipitation, MM = Missing Value Source: NWS Daily Summary

Daily Weather History Graph

Daily Weather History Graph

Search for Another Location

Airport or City:

Astronomy

Aug. 26, 2013 Rise Set
Actual Time 6:48 AM CDT 7:48 PM CDT
Civil Twilight 6:23 AM CDT 8:14 PM CDT
Nautical Twilight 5:53 AM CDT 8:44 PM CDT
Astronomical Twilight 5:22 AM CDT 9:14 PM CDT
Moon 11:23 PM CDT (8/26) 12:27 PM CDT (8/26)
Length of Visible Light 13h 51m
Length of Day
13h 00m
Waning Gibbous, 66% of the Moon is Illuminated
Aug 26
Waning Gibbous
Aug 28
Last Quarter
Sep 5
New
Sep 12
First Quarter
Sep 19
Full

Hourly Weather History & Observations

Time (CDT) Temp. Heat Index Dew Point Humidity Pressure Visibility Wind Dir Wind Speed Gust Speed Precip Events Conditions
12:15 AM 79.3 °F - 66.2 °F 64% 30.17 in 10.0 mi Calm Calm - N/A   Mostly Cloudy
12:35 AM 78.6 °F - 66.0 °F 65% 30.17 in 10.0 mi Calm Calm - N/A   Mostly Cloudy
12:55 AM 78.8 °F - 66.4 °F 66% 30.17 in 10.0 mi Calm Calm - N/A   Mostly Cloudy
1:15 AM 78.1 °F - 67.1 °F 69% 30.17 in 10.0 mi Calm Calm - N/A   Scattered Clouds
1:35 AM 77.2 °F - 66.6 °F 70% 30.17 in 10.0 mi Calm Calm - N/A   Clear
1:55 AM 77.0 °F - 67.3 °F 72% 30.17 in 10.0 mi Calm Calm - N/A   Clear
2:15 AM 75.6 °F - 66.7 °F 74% 30.17 in 10.0 mi Calm Calm - N/A   Clear
2:35 AM 75.6 °F - 67.3 °F 75% 30.16 in 10.0 mi Calm Calm - N/A   Clear
2:55 AM 75.6 °F - 68.0 °F 77% 30.17 in 10.0 mi Calm Calm - N/A   Clear
3:15 AM 75.6 °F - 68.4 °F 78% 30.16 in 10.0 mi Calm Calm - N/A   Clear
3:35 AM 74.8 °F - 67.8 °F 79% 30.16 in 10.0 mi Calm Calm - N/A   Clear
3:55 AM 73.0 °F - 67.5 °F 83% 30.16 in 10.0 mi Calm Calm - N/A   Clear
4:15 AM 72.9 °F - 68.4 °F 86% 30.17 in 10.0 mi Calm Calm - N/A   Clear
4:35 AM 73.0 °F - 68.4 °F 85% 30.17 in 10.0 mi Calm Calm - N/A   Clear
4:55 AM 70.9 °F - 67.1 °F 88% 30.17 in 10.0 mi Calm Calm - N/A   Clear
5:15 AM 70.7 °F - 66.6 °F 87% 30.17 in 10.0 mi Calm Calm - N/A   Clear
5:35 AM 70.7 °F - 66.4 °F 86% 30.17 in 10.0 mi Calm Calm - N/A   Clear
5:55 AM 72.9 °F - 68.4 °F 86% 30.18 in 10.0 mi Calm Calm - N/A   Clear
6:15 AM 73.0 °F - 68.9 °F 87% 30.18 in 10.0 mi Calm Calm - N/A   Clear
6:35 AM 73.0 °F - 69.1 °F 87% 30.18 in 10.0 mi Calm Calm - N/A   Clear
6:55 AM 72.0 °F - 68.2 °F 88% 30.19 in 10.0 mi Calm Calm - N/A   Clear
7:15 AM 70.7 °F - 67.3 °F 89% 30.19 in 10.0 mi Calm Calm - N/A   Clear
7:35 AM 73.0 °F - 69.3 °F 88% 30.20 in 10.0 mi Calm Calm - N/A   Clear
7:55 AM 73.4 °F - 68.9 °F 86% 30.19 in 10.0 mi Calm Calm - N/A   Clear
8:15 AM 75.6 °F - 70.5 °F 84% 30.19 in 10.0 mi Calm Calm - N/A   Clear
8:35 AM 77.0 °F - 70.3 °F 80% 30.20 in 10.0 mi Calm Calm - N/A   Clear
8:55 AM 77.7 °F - 69.8 °F 76% 30.20 in 10.0 mi ESE 4.6 mph - N/A   Clear
9:15 AM 78.4 °F - 69.1 °F 73% 30.21 in 10.0 mi ESE 4.6 mph - N/A   Clear
9:35 AM 80.1 °F 82.8 °F 68.7 °F 68% 30.21 in 10.0 mi SSE 5.8 mph - N/A   Clear
9:55 AM 83.3 °F 87.1 °F 69.4 °F 63% 30.21 in 10.0 mi ESE 9.2 mph - N/A   Scattered Clouds
10:15 AM 84.2 °F 87.9 °F 69.1 °F 60% 30.21 in 10.0 mi SE 6.9 mph 19.6 mph N/A   Clear
10:35 AM 85.6 °F 89.4 °F 68.9 °F 57% 30.21 in 10.0 mi ESE 11.5 mph - N/A   Clear
10:55 AM 85.6 °F 88.8 °F 68.0 °F 55% 30.21 in 10.0 mi SE 8.1 mph - N/A   Scattered Clouds
11:15 AM 85.6 °F 88.5 °F 67.1 °F 54% 30.22 in 10.0 mi ESE 5.8 mph - N/A   Scattered Clouds
11:35 AM 85.6 °F 88.2 °F 66.6 °F 53% 30.21 in 10.0 mi SE 9.2 mph - N/A   Mostly Cloudy
11:55 AM 87.1 °F 89.5 °F 66.2 °F 50% 30.21 in 10.0 mi ESE 9.2 mph 17.3 mph N/A   Mostly Cloudy
12:15 PM 89.8 °F 92.9 °F 67.1 °F 47% 30.19 in 10.0 mi SSE 9.2 mph - N/A   Scattered Clouds
12:35 PM 90.5 °F 93.8 °F 66.9 °F 46% 30.19 in 10.0 mi ESE 10.4 mph - N/A   Scattered Clouds
12:55 PM 90.3 °F 93.0 °F 66.4 °F 45% 30.18 in 10.0 mi East 9.2 mph - N/A   Scattered Clouds
1:15 PM 90.7 °F 92.8 °F 65.1 °F 43% 30.17 in 10.0 mi East 9.2 mph - N/A   Scattered Clouds
1:35 PM 90.7 °F 91.7 °F 63.3 °F 40% 30.17 in 10.0 mi ESE 10.4 mph 16.1 mph N/A   Scattered Clouds
1:55 PM 90.7 °F 91.7 °F 63.0 °F 40% 30.16 in 10.0 mi East 11.5 mph 16.1 mph N/A   Scattered Clouds
2:15 PM 92.5 °F 93.7 °F 63.3 °F 38% 30.15 in 10.0 mi ESE 11.5 mph 17.3 mph N/A   Scattered Clouds
2:35 PM 90.7 °F 90.7 °F 61.3 °F 37% 30.14 in 10.0 mi SE 8.1 mph 16.1 mph N/A   Scattered Clouds
2:55 PM 91.9 °F 91.8 °F 61.0 °F 35% 30.13 in 10.0 mi ESE 8.1 mph 20.7 mph N/A   Scattered Clouds
3:15 PM 90.7 °F 91.3 °F 62.4 °F 39% 30.13 in 10.0 mi SE 6.9 mph 16.1 mph N/A   Mostly Cloudy
3:35 PM 93.0 °F 93.8 °F 62.2 °F 36% 30.11 in 10.0 mi ESE 8.1 mph - N/A   Scattered Clouds
3:55 PM 90.7 °F 91.3 °F 62.8 °F 39% 30.11 in 10.0 mi SE 9.2 mph - N/A   Mostly Cloudy
4:15 PM 90.7 °F 91.3 °F 62.4 °F 39% 30.11 in 10.0 mi ESE 10.4 mph - N/A   Mostly Cloudy
4:35 PM 90.7 °F 91.0 °F 62.1 °F 38% 30.10 in 10.0 mi SE 4.6 mph - N/A   Scattered Clouds
4:55 PM 90.7 °F 92.1 °F 64.0 °F 41% 30.10 in 10.0 mi SE 5.8 mph - N/A   Scattered Clouds
5:15 PM 90.7 °F 90.7 °F 61.2 °F 37% 30.10 in 10.0 mi SE 5.8 mph 18.4 mph N/A   Scattered Clouds
5:35 PM 93.2 °F 94.1 °F 62.8 °F 36% 30.09 in 10.0 mi SSE 8.1 mph - N/A   Scattered Clouds
5:55 PM 90.7 °F 91.3 °F 62.2 °F 39% 30.10 in 10.0 mi East 10.4 mph 16.1 mph N/A   Mostly Cloudy
6:15 PM 90.7 °F 90.7 °F 61.3 °F 37% 30.10 in 10.0 mi ESE 8.1 mph - N/A   Scattered Clouds
6:35 PM 90.7 °F 91.3 °F 62.4 °F 39% 30.09 in 10.0 mi SE 4.6 mph - N/A   Mostly Cloudy
6:55 PM 90.7 °F 91.3 °F 62.8 °F 39% 30.09 in 10.0 mi SE 5.8 mph - N/A   Overcast
7:15 PM 90.7 °F 92.4 °F 64.4 °F 42% 30.10 in 10.0 mi SE 6.9 mph - N/A   Mostly Cloudy
7:35 PM 88.2 °F 89.0 °F 63.3 °F 43% 30.10 in 10.0 mi SSE 6.9 mph - N/A   Mostly Cloudy
7:55 PM 88.2 °F 89.6 °F 64.4 °F 45% 30.10 in 10.0 mi SSE 6.9 mph 16.1 mph N/A   Overcast
8:15 PM 85.6 °F 90.1 °F 70.0 °F 59% 30.12 in 10.0 mi South 15.0 mph - N/A   Overcast
8:35 PM 83.3 °F 87.4 °F 69.8 °F 64% 30.12 in 10.0 mi South 9.2 mph - N/A   Overcast
8:55 PM 81.9 °F 85.2 °F 69.1 °F 65% 30.12 in 10.0 mi South 11.5 mph - N/A   Scattered Clouds
9:15 PM 79.3 °F - 66.7 °F 65% 30.12 in 10.0 mi South 10.4 mph - N/A   Clear
9:35 PM 78.8 °F - 67.1 °F 67% 30.13 in 10.0 mi South 4.6 mph - N/A   Clear
9:55 PM 78.1 °F - 67.6 °F 70% 30.12 in 10.0 mi South 5.8 mph - N/A   Clear
10:15 PM 77.4 °F - 67.6 °F 72% 30.13 in 10.0 mi South 5.8 mph - N/A   Scattered Clouds
10:35 PM 77.0 °F - 68.0 °F 74% 30.13 in 10.0 mi South 5.8 mph - N/A   Mostly Cloudy
10:55 PM 77.0 °F - 68.5 °F 75% 30.14 in 10.0 mi SSW 4.6 mph - N/A   Clear
11:15 PM 77.0 °F - 68.9 °F 76% 30.13 in 10.0 mi South 5.8 mph - N/A   Clear
11:35 PM 75.6 °F - 68.0 °F 77% 30.13 in 10.0 mi South 3.5 mph - N/A   Clear
11:55 PM 75.6 °F - 68.4 °F 78% 30.14 in 10.0 mi SSW 3.5 mph - N/A   Clear